This is the latest recevied weather packets stored in our database for station/object DL6MAA-11. If no packets are shown the sender has not sent any weather packets the latest 10 day(s).
| Time | Temp. | Humidity | Pressure | Rain* | Wind** | Luminosity | Snow |
|---|---|---|---|---|---|---|---|
| 1777532538 | 6.67° C | 44% | 1022.2 hPa | 0 mm | - | 306 W/m² | - |
| 1777532239 | 6.67° C | 44% | 1022.2 hPa | 0 mm | - | 302 W/m² | - |
| 1777531946 | 6.67° C | 44% | 1022.2 hPa | 0 mm | - | 294 W/m² | - |
| 1777531649 | 6.67° C | 45% | 1022.2 hPa | 0 mm | - | 279 W/m² | - |
| 1777531334 | 6.11° C | 46% | 1022.1 hPa | 0 mm | - | 269 W/m² | - |
| 1777531039 | 6.11° C | 45% | 1022.1 hPa | 0 mm | - | 258 W/m² | - |
| 1777530743 | 6.11° C | 44% | 1022.1 hPa | 0 mm | - | 255 W/m² | - |
| 1777530448 | 6.11° C | 45% | 1022.3 hPa | 0 mm | - | 250 W/m² | - |
| 1777530127 | 6.11° C | 45% | 1022.3 hPa | 0 mm | - | 237 W/m² | - |
| 1777529835 | 5.56° C | 46% | 1022.3 hPa | 0 mm | - | 227 W/m² | - |
| 1777529533 | 5.56° C | 45% | 1022 hPa | 0 mm | - | 220 W/m² | - |
| 1777529235 | 5° C | 45% | 1022 hPa | 0 mm | - | 207 W/m² | - |
| 1777528943 | 5° C | 45% | 1022 hPa | 0 mm | - | 193 W/m² | - |
| 1777528648 | 5° C | 46% | 1022.1 hPa | 0 mm | - | 185 W/m² | - |
| 1777528346 | 5° C | 47% | 1022.1 hPa | 0 mm | - | 176 W/m² | - |
| 1777528036 | 4.44° C | 47% | 1022.1 hPa | 0 mm | - | 171 W/m² | - |
| 1777527432 | 4.44° C | 48% | 1022.1 hPa | 0 mm | - | 151 W/m² | - |
| 1777527131 | 3.89° C | 49% | 1022.1 hPa | 0 mm | - | 141 W/m² | - |
| 1777526834 | 3.33° C | 50% | 1022.3 hPa | 0 mm | - | 128 W/m² | - |
| 1777526542 | 2.78° C | 52% | 1022.3 hPa | 0 mm | - | 125 W/m² | - |
| 1777526246 | 2.22° C | 53% | 1022.3 hPa | 0 mm | - | 109 W/m² | - |
| 1777525930 | 1.67° C | 54% | 1022.1 hPa | 0 mm | - | 100 W/m² | - |
| 1777525632 | 1.67° C | 55% | 1022.1 hPa | 0 mm | - | 54 W/m² | - |
| 1777525335 | 1.67° C | 55% | 1022.1 hPa | 0 mm | - | 25 W/m² | - |
| 1777525037 | 1.11° C | 55% | 1021.8 hPa | 0 mm | - | 21 W/m² | - |
* Rain since midnight (hover to see other rain measurements)
** Current wind speed in m/s (hover to see current wind gust speed)